OneWeb SL0515

operational
NORAD ID: 54133 Int'l Des: 2022-138 Owner: ONEWEBN Country: UK Constellation: oneweb
LEOCIRCULARPOLARONEWEB_TYPE

About OneWeb SL0515

Description loading...

Live Position

Loading 3D Globe...

Upcoming Passes

Altitude History

Altitude vs Time

uPlot chart will show altitude changes over time

Two-Line Element Set

1 54133U 22138W 25260.69744176 .00000055 00000-0 10224-3 0 9993
2 54133 87.9275 328.7459 0002577 116.4911 243.6487 13.20771736143333
Epoch: Sep 17, 2025 • Age: 17 hours

Current Status

Altitude 1187.3 km
Velocity 7.26 km/s
Sub-Earth Point 41.59°N, 166.78°W
Launch Date Oct 22, 2022
Age 2.9 years
Type internet

Technical Details

Classification Payload
Mass 148.00 kg
Dry Mass 140.00 kg
Total Mass 148.00 kg
Length 1.30 m
Diameter 1.00 m
Span 5.00 m
Shape Trapezoid+2 pan
Manufacturer ONEWUS
Bus Type ARROW
Phase Status In Orbit
Owner/State ONEWEBN/UK

Large Constellations

Loading constellations...